Regional Weather Roundup
Issued by NWS Albany, NY

Home | Current Version | Previous Version | Text Only | Print | Product List | Glossary On
Versions: 1 2 3 4 5 6 7 8 9 10 11 12 13 14 15 16 17 18 19 20 21 22 23 24 25 26 27 28 29 30 31 32 33 34 35 36 37 38 39 40 41 42 43 44 45 46 47 48 49 50
000
ASUS41 KALY 021710
RWRALY

NEW YORK STATE HOURLY WEATHER ROUNDUP
NATIONAL WEATHER SERVICE ALBANY NY
100 PM EDT THU JUL 02 2015

NOTE: "FAIR" INDICATES FEW OR NO CLOUDS BELOW 12,000 FEET WITH NO
SIGNIFICANT WEATHER AND/OR NO OBSTRUCTIONS TO VISIBILITY.

NYZ032-033-038>043-046>054-057>066-NYZ062>081-021800-
EAST


CITY           SKY/WX    TMP DP  RH WIND       PRES   REMARKS
ALBANY         PTSUNNY   73  55  53 NW8       29.91F
GLENS FALLS    PTSUNNY   72  53  51 VRB7      29.89F
POUGHKEEPSIE   MOSUNNY   77  56  48 CALM      29.90F
NEWBURGH       MOSUNNY   75  59  57 CALM      29.92F
MONTGOMERY     PTSUNNY   76  59  55 N8        29.90F
WHITE PLAINS   MOSUNNY   77  57  50 CALM      29.90F
ISLIP          CLOUDY    79  59  50 E3        29.89S
NEW YORK CITY  CLOUDY    79  57  46 NE7       29.89F
CENTRAL PARK   PTSUNNY   79  58  48 CALM      29.92F
$$

NYZ005>009-017-018-044>046-055-056-021800-
CENTRAL


CITY           SKY/WX    TMP DP  RH WIND       PRES   REMARKS
FULTON         SUNNY     69  49  48 MISG      29.97S
SYRACUSE       PTSUNNY   70  55  59 NW9       29.95S
ROME           PTSUNNY   68  54  60 NW9       29.95F
ELMIRA         PTSUNNY   72  57  59 VRB7      29.93F
BINGHAMTON     PTSUNNY   68  54  60 VRB6      29.95F
MONTICELLO     PTSUNNY   70  55  60 W6        29.95F
$$

NYZ026>034-041>043-021800-
NORTH


CITY           SKY/WX    TMP DP  RH WIND       PRES   REMARKS
WATERTOWN      SUNNY     67  53  61 W12       29.95F
FORT DRUM      NOT AVBL
MASSENA        SUNNY     69  47  45 W14       29.91S
SARANAC LAKE   MOSUNNY   64  42  44 W8G18     29.92S
PLATTSBURGH    SUNNY     73  41  31 VRB6      29.87F
$$

NYZ001>004-010>016-019>021-021800-
WEST


CITY           SKY/WX    TMP DP  RH WIND       PRES   REMARKS
NIAGARA FALLS  MOSUNNY   68  48  48 NE10      29.99S
BUFFALO        MOSUNNY   68  50  52 NW7       29.98S
DUNKIRK        SUNNY     65  57  75 NW12      30.00R
JAMESTOWN      PTSUNNY   64  54  68 W8        30.00S
WELLSVILLE     PTSUNNY   67  53  61 VRB3      30.00S
ROCHESTER      MOSUNNY   68  52  56 N7        29.98S
PENN YAN       MOSUNNY   69  55  60 W3        29.96F
$$

             KEY
       WCI = WIND CHILL INDEX
       VSB = VISIBILITY
       HX  = HEAT INDEX
$$


USA.gov is the U.S. government's official web portal to all federal, state and local government web resources and services.